Flag for U.S.A. Weather past 2 weeks in Helena, Montana, U.S.A.

Now
74 °F

Sunny.


Feels Like: 76 °F
Forecast: 52 / 82 °F
Wind: 8 mph from West

Location: Helena Regional Airport

Current Time: Aug 28, 2014 at 9:38:19 PM

Latest Report: Aug 28, 2014 at 8:53 PM


Visibility: 10 mi

Pressure: 29.94 "Hg

Humidity: 28%

Dew point: 39 °F

Location of HelenaLocation

Historic Weather in Helena — Graph

°F

Helena temperature yesterday

Maximum temperature yesterday: 84 °F (at 3:53 PM)
Minimum temperature yesterday: 49 °F (at 6:53 AM)
Average temperature yesterday: 68 °F

Past Weeks' High & Low Weather Summary

 TemperatureHumidityPressure
High90 °F (Aug 18, 4:53 PM)93% (Aug 23, 12:53 AM)30.22 "Hg (Aug 23, 12:53 AM)
Low43 °F (Aug 25, 6:53 AM)14% (Aug 18, 4:53 PM)29.64 "Hg (Aug 19, 4:53 PM)
Average65 °F59%30.02 "Hg
* Reported Aug 13 7:53 PM — Aug 28 7:53 PM, Helena, Weather by CustomWeather, © 2014

Note: Actual official high and low records may vary slightly from our data, if they occured in-between our weather recording intervals... More about our weather records

Advertising

Helena weather history for previous 24 hours

 ConditionsComfort  
Time TempWeatherWind HumidityBarometerVisibility
7:53 PM
Aug 28
79 °FSunny.8 mph24%29.91 "Hg10 mi
6:53 PM84 °FSunny.16 mph19%29.88 "Hg10 mi
5:53 PM86 °FSunny.20 mph17%29.87 "Hg10 mi
4:53 PM87 °FSunny.13 mph17%29.88 "Hg10 mi
3:53 PM88 °FSunny.9 mph22%29.88 "Hg10 mi
2:53 PM85 °FSunny.5 mph27%29.89 "Hg10 mi
1:53 PM83 °FSunny.6 mph27%29.93 "Hg10 mi
12:53 PM79 °FSunny.6 mph36%29.97 "Hg10 mi
11:53 AM76 °FSunny.5 mph40%30.00 "Hg10 mi
10:53 AM71 °FSunny.No wind45%30.04 "Hg10 mi
9:53 AM65 °FPassing clouds.No wind52%30.06 "Hg10 mi
8:53 AM60 °FSunny.No wind69%30.07 "Hg10 mi
7:53 AM57 °FSunny.No wind72%30.07 "Hg10 mi
6:53 AM54 °FClear.No wind77%30.05 "Hg10 mi
5:53 AM54 °FClear.No wind77%30.04 "Hg10 mi
4:53 AM55 °FClear.No wind74%30.03 "Hg10 mi
3:53 AM57 °FClear.No wind69%30.02 "Hg10 mi
2:53 AM61 °FClear.No wind58%30.02 "Hg10 mi
1:53 AM61 °FClear.No wind60%30.01 "Hg10 mi
12:53 AM61 °FClear.No wind60%30.01 "Hg10 mi
11:53 PM
Aug 27
65 °FClear.5 mph51%30.01 "Hg10 mi
10:53 PM65 °FClear.3 mph52%30.03 "Hg10 mi
9:53 PM72 °FClear.9 mph37%30.03 "Hg10 mi
Weather by CustomWeather, © 2014

See weather overviewHow to use our weather pages